Regional Weather Roundup
Issued by NWS Green Bay, WI

Home | Current Version | Previous Version | Text Only | Print | Product List | Glossary On
Versions: 1 2 3 4 5 6 7 8 9 10 11 12 13 14 15 16 17 18 19 20 21 22 23 24 25 26 27 28 29 30 31 32 33 34 35 36 37 38 39 40 41 42 43 44 45 46 47 48 49 50
945
ASUS43 KGRB 262011
RWRGRB

NORTH-CENTRAL AND NORTHEAST WISCONSIN REGIONAL WEATHER ROUNDUP
NATIONAL WEATHER SERVICE GREEN BAY WI
300 PM CDT MON SEP 26 2016

WIZ005-009-010>012-018-019-262100-
NORTH CENTRAL WISCONSIN

CITY           SKY/WX    TMP DP  RH WIND       PRES   REMARKS
IRONWOOD       LGT RAIN  49  47  93 W17G25    29.69S
MANITOWISH WTR DRIZZLE   49  48  99 W14G24    29.71S
ARBOR VITAE    DRIZZLE   52  49  90 W12G18    29.73R
EAGLE RIVER    LGT RAIN  49  44  83 W15G22    29.71R
LAND O LAKES   DRIZZLE   49  46  91 W14G21    29.71R
RHINELANDER    CLOUDY    53  42  66 W23G30    29.74R
PHILLIPS       CLOUDY    52  42  70 W10G16    29.76R
ANTIGO         CLOUDY    54  40  59 W14G23    29.76R
TOMAHAWK       CLOUDY    53  39  59 W17G26    29.77R
MERRILL        CLOUDY    56  40  53 W14G25    29.77R
$$

WIZ013-073-262100-
NORTHEAST WISCONSIN

CITY           SKY/WX    TMP DP  RH WIND       PRES   REMARKS
IRON MOUNTAIN  CLOUDY    55  43  63 W14G21    29.68R
MARINETTE      CLOUDY    58  43  57 W10G17    29.74R
OCONTO         CLOUDY    59  42  53 W15G25    29.75S
$$

WIZ017-030-035>037-045-262100-
CENTRAL WISCONSIN

CITY           SKY/WX    TMP DP  RH WIND       PRES   REMARKS
MEDFORD        CLOUDY    55  38  53 W22G31    29.79R
WAUSAU         PTSUNNY   58  39  49 W23G32    29.77R
MOSINEE        PTSUNNY  N/A N/A N/A W22G30    29.80S
MARSHFIELD     PTSUNNY   60  37  42 W24G40    29.82R
WISC RAPIDS    CLOUDY    63  40  42 W18G30    29.83S
STEVENS POINT  CLOUDY    58  37  45 W21G29    29.81S
WAUPACA        CLOUDY    63  39  42 W16G22    29.81S
SHAWANO        CLOUDY    62  39  42 W14G25    29.77S
CLINTONVILLE   NOT AVBL
WAUTOMA        CLOUDY    62  39  42 W17G31    29.83F
$$

WIZ038-039-048-051-262100-
FOX VALLEY

CITY           SKY/WX    TMP DP  RH WIND       PRES   REMARKS
NWS GREEN BAY  PTSUNNY   62  40  44 W21G32    29.78R
APPLETON       PTSUNNY   61  36  39 W21G29    29.80R
OSHKOSH        CLOUDY    61  39  44 W12G23    29.82R
FOND DU LAC    PTSUNNY   62  39  42 W14G24    29.84S
$$

WIZ022-050-052-262100-
EAST CENTRAL WISCONSIN

CITY           SKY/WX    TMP DP  RH WIND       PRES   REMARKS
EPHRAIM        CLOUDY    56  46  67 W13G23    29.72R
WASHINGTON ISL CLOUDY    57  44  62 W17G30    29.70S
STURGEON BAY   CLOUDY    60  42  51 W21G28    29.75R
MANITOWOC      PTSUNNY   63  36  36 MISG      29.80R
SHEBOYGAN      PTSUNNY   64  37  36 W20G26    29.82F
$$

LMZ563-521-522-541>543-262100-
LAKESHORE

STATION/POSITION TIME  TEMP    WIND        PRES    VSBY  WAVE
                       AIR SEA DIR/SP/G                  HT/PER
                 (UTC) (F)     (DEG/KT/KT) (MB)    (MI)  (FT/S)
SHEBOYGAN LKSHOR 2000   63     280/ 17/ 21 1009.5S
KEWAUNEE LKSHORE 1900   62     250/ 18/ 25 1007.5F
NORTHPORT PIER   1900   59     260/  9/ 20 1006.1S
N MID LAKE BUOY  1950   60 67  260/ 25/ 33 1004.4F         6/ 6
CHAMBERS ISLAND  1900   59     230/ 11/ 21 1005.8F
MENOMINEE LKSHOR 1900   60     240/ 16/ 21 1005.8F
$$




USA.gov is the U.S. government's official web portal to all federal, state and local government web resources and services.